Location: Newark
(51.5306°N, 0.2243°W)
Time: 20:56:03
(UTC+00:00)

Envisat - Pass Details

Date: 29 September 2019
Orbit: 764 x 766 km, 98.1° (Epoch: 15 October)

Event Time Altitude Azimuth Distance (km) Brightness Sun altitude
Rises 18:50:17 0° 192° (SSW) 3,221 6.3 -11.1°
Reaches altitude 10° 18:52:48 10° 202° (SSW) 2,300 5.6 -11.5°
Maximum altitude 18:57:20 32° 265° (W) 1,287 4.9 -12.2°
Drops below altitude 10° 19:01:54 10° 329° (NNW) 2,315 6.1 -12.9°
Sets 19:04:27 0° 339° (NNW) 3,246 6.7 -13.3°
